AMC-14

Last updated on Thu Dec 18 2025 00:02:47 GMT+0000 (Coordinated Universal Time)

1 32708U 08011A 25350.75858556 .00000113 00000+0 00000+0 0 9997 2 32708 23.7852 22.7194 0041068 350.6200 16.7297 1.00287843 66343
UTC large
Height (km)
Speed (km/s)
/
Latitude / Longitude
Inclination (degrees)
Orbital Period (minutes)
Azimuth
Elevation
Range (km)
Doppler Factor

Next 0 passes for location: London (51.5072 / 0.1276)

Sorry there are no passes over London.